When you browse on this site, cookies collect data to enhance your experience and personalize the content and advertising you see.
Visit our Privacy Policy to learn more. By continuing to use the site, you agree to this use of cookies and data.
  • en Suisse
  • Liste des pays
  • À 7 jours
  • Température de l'eau
  • Carte satellitaire
  • Carte météo
  • Widgets météo
  • user-avatar
    Se connecter

    Météo par heure à Salzbourg

    Ce jour, 24 Mai, Vendredi

    Heure Température Précipitation Vent Pression Humidité
    00:00 +2°C° 0 mm 1 m/s 625 mmHg 93%
    01:00 +2°C° 0 mm 1 m/s 624 mmHg 90%
    02:00 +1°C° 0 mm 1 m/s 624 mmHg 87%
    03:00 +1°C° 0 mm 1 m/s 624 mmHg 85%
    04:00 +1°C° 0 mm 1 m/s 624 mmHg 82%
    05:00 +3°C° 0 mm 1 m/s 625 mmHg 75%
    06:00 +6°C° 0 mm 1 m/s 625 mmHg 67%
    07:00 +8°C° 0 mm 0 m/s 626 mmHg 62%
    08:00 +9°C° 0 mm 0 m/s 626 mmHg 56%
    09:00 +12°C° 0 mm 1 m/s 627 mmHg 49%
    10:00 +14°C° 0 mm 1 m/s 627 mmHg 43%
    11:00 +14°C° 0 mm 1 m/s 627 mmHg 41%
    12:00 +15°C° 0 mm 1 m/s 627 mmHg 40%
    13:00 +16°C° 0 mm 2 m/s 627 mmHg 38%
    14:00 +15°C° 0 mm 2 m/s 627 mmHg 41%
    15:00 +15°C° 0 mm 2 m/s 627 mmHg 43%
    16:00 +15°C° 0 mm 2 m/s 626 mmHg 46%
    17:00 +13°C° 0 mm 2 m/s 626 mmHg 57%
    18:00 +11°C° 0 mm 1 m/s 625 mmHg 68%
    19:00 +9°C° 0 mm 1 m/s 624 mmHg 79%
    20:00 +8°C° 0 mm 1 m/s 624 mmHg 83%
    21:00 +6°C° 0 mm 1 m/s 624 mmHg 87%
    22:00 +5°C° 0 mm 1 m/s 624 mmHg 92%
    23:00 +5°C° 0 mm 1 m/s 624 mmHg 91%

    Demain, 25 Mai, Samedi

    Heure Température Précipitation Vent Pression Humidité
    00:00 +5°C° 0 mm 1 m/s 624 mmHg 90%
    01:00 +5°C° 0 mm 1 m/s 624 mmHg 89%
    02:00 +5°C° 0 mm 1 m/s 623 mmHg 89%
    03:00 +4°C° 0 mm 1 m/s 623 mmHg 88%
    04:00 +4°C° 0 mm 1 m/s 623 mmHg 87%
    05:00 +6°C° 0 mm 1 m/s 624 mmHg 81%
    06:00 +8°C° 0 mm 1 m/s 625 mmHg 76%
    07:00 +9°C° 0 mm 0 m/s 625 mmHg 70%
    08:00 +10°C° 0.1 mm 0 m/s 626 mmHg 66%
    09:00 +12°C° 0.1 mm 0 m/s 626 mmHg 62%
    10:00 +13°C° 0.1 mm 0 m/s 627 mmHg 58%
    11:00 +14°C° 0.3 mm 0 m/s 627 mmHg 59%
    12:00 +14°C° 0.3 mm 0 m/s 627 mmHg 61%
    13:00 +15°C° 0.3 mm 1 m/s 627 mmHg 62%
    14:00 +14°C° 0.9 mm 1 m/s 626 mmHg 69%
    15:00 +13°C° 0.9 mm 1 m/s 626 mmHg 77%
    16:00 +12°C° 0.9 mm 1 m/s 625 mmHg 84%
    17:00 +11°C° 1.3 mm 1 m/s 625 mmHg 88%
    18:00 +10°C° 1.3 mm 1 m/s 625 mmHg 91%
    19:00 +8°C° 1.3 mm 0 m/s 625 mmHg 95%
    20:00 +9°C° 2.8 mm 1 m/s 625 mmHg 96%
    21:00 +8°C° 2.8 mm 1 m/s 625 mmHg 97%
    22:00 +8°C° 2.8 mm 1 m/s 625 mmHg 98%
    23:00 +7°C° 3.3 mm 1 m/s 625 mmHg 98%

    Après-demain, 26 Mai, Dimanche

    Heure Température Précipitation Vent Pression Humidité
    00:00 +7°C° 3.3 mm 1 m/s 625 mmHg 98%
    01:00 +7°C° 3.3 mm 1 m/s 625 mmHg 98%
    02:00 +6°C° 0.7 mm 1 m/s 625 mmHg 98%
    03:00 +5°C° 0.7 mm 0 m/s 624 mmHg 98%
    04:00 +5°C° 0.7 mm 0 m/s 624 mmHg 98%
    05:00 +5°C° 0.1 mm 0 m/s 625 mmHg 96%
    06:00 +6°C° 0.1 mm 0 m/s 625 mmHg 95%
    07:00 +7°C° 0.1 mm 0 m/s 625 mmHg 93%
    08:00 +8°C° 0.1 mm 0 m/s 626 mmHg 88%
    09:00 +10°C° 0.1 mm 1 m/s 626 mmHg 83%
    10:00 +11°C° 0.1 mm 1 m/s 627 mmHg 78%
    11:00 +12°C° 0.2 mm 1 m/s 627 mmHg 74%
    12:00 +13°C° 0.2 mm 1 m/s 627 mmHg 71%
    13:00 +14°C° 0.2 mm 1 m/s 627 mmHg 68%
    14:00 +14°C° 0.4 mm 1 m/s 627 mmHg 70%
    15:00 +14°C° 0.4 mm 1 m/s 627 mmHg 72%
    16:00 +14°C° 0.4 mm 1 m/s 626 mmHg 74%
    17:00 +13°C° 0.6 mm 1 m/s 626 mmHg 80%
    18:00 +11°C° 0.6 mm 1 m/s 626 mmHg 87%
    19:00 +9°C° 0.6 mm 0 m/s 625 mmHg 93%
    20:00 +8°C° 0.5 mm 0 m/s 625 mmHg 94%
    21:00 +8°C° 0.5 mm 0 m/s 625 mmHg 95%
    22:00 +7°C° 0.5 mm 0 m/s 625 mmHg 96%
    23:00 +7°C° 0.4 mm 0 m/s 625 mmHg 96%

    27 Mai, Lundi

    Heure Température Précipitation Vent Pression Humidité
    00:00 +7°C° 0.4 mm 0 m/s 625 mmHg 96%
    01:00 +7°C° 0.4 mm 1 m/s 624 mmHg 96%
    02:00 +7°C° 0.4 mm 1 m/s 624 mmHg 96%
    03:00 +6°C° 0.4 mm 0 m/s 624 mmHg 96%
    04:00 +6°C° 0.4 mm 0 m/s 624 mmHg 96%
    05:00 +7°C° 0.4 mm 0 m/s 624 mmHg 95%
    06:00 +7°C° 0.4 mm 0 m/s 624 mmHg 94%
    07:00 +8°C° 0.4 mm 0 m/s 624 mmHg 93%
    08:00 +9°C° 0.6 mm 0 m/s 625 mmHg 92%
    09:00 +9°C° 0.6 mm 0 m/s 625 mmHg 90%
    10:00 +11°C° 0.6 mm 1 m/s 625 mmHg 89%
    11:00 +11°C° 0.9 mm 1 m/s 625 mmHg 88%
    12:00 +11°C° 0.9 mm 1 m/s 624 mmHg 88%
    13:00 +12°C° 0.9 mm 1 m/s 624 mmHg 87%
    14:00 +12°C° 0.5 mm 1 m/s 624 mmHg 88%
    15:00 +12°C° 0.5 mm 1 m/s 624 mmHg 89%
    16:00 +12°C° 0.5 mm 1 m/s 623 mmHg 90%
    17:00 +11°C° 0.4 mm 1 m/s 623 mmHg 93%
    18:00 +10°C° 0.4 mm 1 m/s 623 mmHg 95%
    19:00 +10°C° 0.4 mm 1 m/s 622 mmHg 97%
    20:00 +8°C° 1.2 mm 0 m/s 622 mmHg 97%
    21:00 +8°C° 1.2 mm 0 m/s 622 mmHg 98%
    22:00 +8°C° 1.2 mm 0 m/s 622 mmHg 98%
    23:00 +7°C° 2 mm 0 m/s 622 mmHg 98%

    28 Mai, Mardi

    Heure Température Précipitation Vent Pression Humidité
    00:00 +7°C° 2 mm 0 m/s 621 mmHg 98%
    01:00 +8°C° 2 mm 1 m/s 621 mmHg 98%
    02:00 +7°C° 1.6 mm 1 m/s 620 mmHg 98%
    03:00 +7°C° 1.6 mm 1 m/s 620 mmHg 98%
    04:00 +7°C° 1.6 mm 1 m/s 619 mmHg 98%
    05:00 +6°C° 1.6 mm 0 m/s 619 mmHg 98%
    06:00 +6°C° 1.6 mm 0 m/s 619 mmHg 97%
    07:00 +6°C° 1.6 mm 0 m/s 619 mmHg 97%
    08:00 +7°C° 0.9 mm 0 m/s 619 mmHg 95%
    09:00 +7°C° 0.9 mm 0 m/s 619 mmHg 94%
    10:00 +8°C° 0.9 mm 0 m/s 620 mmHg 92%
    11:00 +9°C° 0.5 mm 1 m/s 620 mmHg 89%
    12:00 +10°C° 0.5 mm 1 m/s 620 mmHg 85%
    13:00 +11°C° 0.5 mm 1 m/s 620 mmHg 82%
    14:00 +10°C° 0.8 mm 1 m/s 620 mmHg 86%
    15:00 +10°C° 0.8 mm 1 m/s 619 mmHg 89%
    16:00 +9°C° 0.8 mm 1 m/s 619 mmHg 93%
    17:00 +9°C° 0.7 mm 1 m/s 619 mmHg 95%
    18:00 +8°C° 0.7 mm 1 m/s 619 mmHg 96%
    19:00 +8°C° 0.7 mm 1 m/s 619 mmHg 98%
    20:00 +7°C° 1.4 mm 1 m/s 619 mmHg 98%
    21:00 +7°C° 1.4 mm 1 m/s 619 mmHg 98%
    22:00 +6°C° 1.4 mm 0 m/s 619 mmHg 99%
    23:00 +6°C° 1.8 mm 0 m/s 619 mmHg 98%

    29 Mai, Mercredi

    Heure Température Précipitation Vent Pression Humidité
    00:00 +5°C° 1.8 mm 0 m/s 619 mmHg 98%
    01:00 +5°C° 1.8 mm 0 m/s 619 mmHg 98%
    02:00 +5°C° 1.5 mm 0 m/s 619 mmHg 98%
    03:00 +5°C° 1.5 mm 0 m/s 619 mmHg 98%
    04:00 +6°C° 1.5 mm 1 m/s 619 mmHg 98%
    05:00 +6°C° 1.4 mm 1 m/s 619 mmHg 98%
    06:00 +6°C° 1.4 mm 1 m/s 619 mmHg 97%
    07:00 +6°C° 1.4 mm 1 m/s 620 mmHg 97%
    08:00 +6°C° 0.9 mm 1 m/s 620 mmHg 96%
    09:00 +7°C° 0.9 mm 1 m/s 621 mmHg 94%
    10:00 +7°C° 0.9 mm 1 m/s 621 mmHg 93%
    11:00 +8°C° 0.4 mm 1 m/s 622 mmHg 90%
    12:00 +9°C° 0.4 mm 1 m/s 622 mmHg 87%
    13:00 +10°C° 0.4 mm 1 m/s 623 mmHg 85%
    14:00 +9°C° 1.3 mm 1 m/s 623 mmHg 89%
    15:00 +8°C° 1.3 mm 1 m/s 623 mmHg 93%
    16:00 +7°C° 1.3 mm 1 m/s 622 mmHg 97%
    17:00 +6°C° 0.6 mm 1 m/s 623 mmHg 97%
    18:00 +6°C° 0.6 mm 1 m/s 623 mmHg 98%
    19:00 +6°C° 0.6 mm 1 m/s 624 mmHg 98%
    20:00 +5°C° 0.5 mm 1 m/s 624 mmHg 98%
    21:00 +5°C° 0.5 mm 1 m/s 625 mmHg 98%
    22:00 +5°C° 0.5 mm 1 m/s 625 mmHg 98%
    23:00 +4°C° 0.2 mm 1 m/s 625 mmHg 98%
    Voir plus